STARLINK-4159 (53292 NORAD) Tracking and Keplerian Element Data

This shows tracking and keplerian element data for the satellite.

Feedback or suggestion? Click here.




ElementValue
Catalog53292
NameSTARLINK-4159
Epoch Orbit1081
Epoch Day270.25001157
Epoch Year2022
RAAN83.2481
Inclination53.2176
Eccentricity0.000168
Argument of Perigee33.2338
Mean Anonmoly125.5821
Mean Motion15.63134478
Decay Rate-0.01104075
L11 53292U 22086BC 22270.25001157 -.01104075 00000+0 -13087-1 0 9992
L22 53292 53.2176 83.2481 0001680 33.2338 125.5821 15.63134478 10816

Live tracking and technical data element details for STARLINK-4159 (NORAD 53292). STARLINK-4159 can be tracked NOW for your location showing map with azimuth and elevation plus other details from your city location.

Track the satellite on the map from your city or location and see movement details for azimuth, elevation, latitude, longitude, range, height, and movement on the map or in text.







IsCatalogInMostPopularTable: catalog: 53292, numindb: 3
Update: records affected: 1



GetName: 53292 STARLINK-4159

Hit Count: updated at: Wed, 28 Sep 2022 23:36:57 GMT